STARLINK-35603, 66141

Orbit data source: Space-Track

STARLINK-35603, 66141 is a payload satellite owned by SpaceX/Seattle (US) in LEO that was launched on Wed, 22 Oct 2025 UTC via an FALCON 9 launch vehicle from the Air Force Western Test Range (AFWTR). Payload-class satellites include a variety of spacecraft equipped with specific instruments for various scientific and technological missions. These include communications satellites like Starlink; space stations such as the ISS; scientific satellites like the Hubble; Earth observation satellites from companies like Planet Labs, Umbra, and HawkEye 360; GPS; miniature CubeSats for education and research; and military/defense satellites.

Loading next visibility...
Identifier
66141, 2025-237AD
Orbit
LEO
Country
Flag of USUS
Related business
Manufacturer
SpaceX/Seattle
Mission
Operational Commercial Communications
Bus & Motor
STARLINK V2MO, Unknown motor
Mass
575 kg wet, ~530 kg dry
Launch date (UTC)
2025-10-22 (8 months ago)
Launch vehicle
FALCON 9
Launch site
Air Force Western Test Range (AFWTR)
Object type
Payload
Rocket body
Debris
Shape & HBR
Box + 2 Pan, 17.7 m
Radar Cross Section
36.964 m², Large (>1 m²)

Expand to show TLE details & history
Last TLE update: 1 day ago

TLE from 1 day ago
0 STARLINK-35603
1 66141U 25237AD  26170.70303737  .00034178  00000-0  10185-2 0  9993
2 66141  53.1602 285.4667 0001122  86.3597 273.7534 15.34385477 38233
Epoch: 2026-06-19T16:52Z
TLE epoch observation values (Epoch: 2026-06-19T16:52:22.428Z)
Latitude
-0.00003°
Longitude
124.44502°
Altitude
463.598 km
Speed
7.636 km/s
True Right ascension
19h 01m 52s
True Declination
0° 00' 00"
Sunlit
Object was in full shadow at epoch
Visualization orbit readout
Latitude
Unknown
Longitude
Unknown
Altitude
Unknown
Speed
Unknown
Apparent Right ascension
Unknown
Apparent Declination
Unknown
Sunlit
N/A
Visualization observer readout
Local Sidereal Time
07:23:57
Azimuth
Unknown
Elevation
Unknown
Doppler factor
Unknown
Orbital elements
Apogee altitude
463.771 km
Perigee altitude
462.236 km
Semi-major axis
6,841.14 km
Eccentricity
0.00011
Inclination
53.1602°
RAAN
285.4667°
Arg. of periapsis
86.3597°
True anomaly
273.74057°
Mean anomaly
273.7534°
Eccentric anomaly
273.74699°
Mean motion
3.83575 °/min
Orbital period
93.85 mins
BSTAR
0.0010185
Loading maneuver chart data...
Computing Atmospheric mass density...
Loading historical data...
Loading historical data...
Loading historical data...
Loading historical data...
Loading historical data...
Loading historical data...
Loading historical data...

Documentation

Showing up to 5 results
|